[TLELIST] Archives

 

Current TLEs

March 1st 2008 PST

HST 1 20580U 90037B 08059.85253987 .00000333 00000-0 12922-4 0 825 2 20580 028.4690 316.3167 0003530 300.4556 059.5683 15.00342024778545 ISS (ZARYA) 1 25544U 98067A 08060.45455880 .00017015 00000-0 11243-3 0 172 2 25544 051.6397 216.8383 0002190 178.7285 231.3277 15.75715172531379 CXO 1 25867U 99040B 08059.12500000 .00000125 00000-0 10000-3 0 1736 2 25867 063.2186 083.3154 6641497 280.2288 354.1024 00.37805772 3211 ____________________________________________________________________ These 2-Line ...Continue Reading

Current TLEs

February 29th 2008 PST

HST 1 20580U 90037B 08058.18952117 .00000356 00000-0 14738-4 0 812 2 20580 028.4688 327.1604 0003561 282.2673 077.7518 15.00341572778297 ISS (ZARYA) 1 25544U 98067A 08059.24020833 .00010632 00000-0 66346-4 0 97 2 25544 051.6380 223.0842 0007793 085.9488 271.1938 15.77533424531173 CXO 1 25867U 99040B 08059.12500000 .00000125 00000-0 10000-3 0 1736 2 25867 063.2186 083.3154 6641497 280.2288 354.1024 00.37805772 3211 ____________________________________________________________________ These 2-Line ...Continue Reading

Current TLEs

February 28th 2008 PST

HST 1 20580U 90037B 08058.18952117 .00000356 00000-0 14738-4 0 812 2 20580 028.4688 327.1604 0003561 282.2673 077.7518 15.00341572778297 ISS (ZARYA) 1 25544U 98067A 08058.36658672 .00010387 00000-0 64970-4 0 39 2 25544 051.6383 227.5940 0007784 083.4598 348.9527 15.77512657531047 CXO 1 25867U 99040B 08059.12500000 .00000125 00000-0 10000-3 0 1736 2 25867 063.2186 083.3154 6641497 280.2288 354.1024 00.37805772 3211 ____________________________________________________________________ These 2-Line ...Continue Reading

Current TLEs

February 27th 2008 PST

HST 1 20580U 90037B 08056.85910613 .00000344 00000-0 13754-4 0 802 2 20580 028.4688 335.8392 0003795 266.5035 093.5118 15.00340987778092 ISS (ZARYA) 1 25544U 98067A 08057.27545139 .00010280 00000-0 64411-4 0 9942 2 25544 051.6377 233.2265 0007732 080.1228 271.5370 15.77488018530860 CXO 1 25867U 99040B 08056.50000000 .00000106 00000-0 10000-3 0 1728 2 25867 063.2052 083.3594 6635665 280.2808 356.6992 00.37805726 3208 ____________________________________________________________________ These 2-Line ...Continue Reading

Current TLEs

February 26th 2008 PST

HST 1 20580U 90037B 08055.19608768 .00000337 00000-0 13259-4 0 793 2 20580 028.4689 346.6832 0003880 248.3999 111.6178 15.00340377777847 ISS (ZARYA) 1 25544U 98067A 08056.40501551 .00010543 00000-0 66009-4 0 9886 2 25544 051.6380 237.7192 0007787 077.3293 007.8522 15.77470126530738 CXO 1 25867U 99040B 08056.50000000 .00000106 00000-0 10000-3 0 1728 2 25867 063.2052 083.3594 6635665 280.2808 356.6992 00.37805726 3208 ____________________________________________________________________ These 2-Line ...Continue Reading

Current TLEs

February 25th 2008 PST

HST 1 20580U 90037B 08055.19608768 .00000337 00000-0 13259-4 0 793 2 20580 028.4689 346.6832 0003880 248.3999 111.6178 15.00340377777847 ISS (ZARYA) 1 25544U 98067A 08055.38843678 .00010778 00000-0 67456-4 0 9822 2 25544 051.6382 242.9658 0007755 074.0556 354.2242 15.77448284530576 CXO 1 25867U 99040B 08053.83333333 .00000109 00000-0 10000-3 0 1711 2 25867 063.1898 083.4141 6631157 280.3311 353.5958 00.37806144 3197 ____________________________________________________________________ These 2-Line ...Continue Reading

Current TLEs

February 24th 2008 PST

HST 1 20580U 90037B 08053.86567285 .00000321 00000-0 11980-4 0 784 2 20580 028.4687 355.3600 0004062 234.8503 125.1708 15.00339828777645 ISS (ZARYA) 1 25544U 98067A 08054.29648148 .00011757 00000-0 73277-4 0 9754 2 25544 051.6410 248.6003 0007908 071.3544 271.7776 15.77426884530399 CXO 1 25867U 99040B 08053.83333333 .00000109 00000-0 10000-3 0 1711 2 25867 063.1898 083.4141 6631157 280.3311 353.5958 00.37806144 3197 ____________________________________________________________________ These 2-Line ...Continue Reading

Current TLEs

February 23rd 2008 PST

HST 1 20580U 90037B 08051.93657217 +.00000345 +00000-0 +13868-4 0 00788 2 20580 028.4684 007.9414 0003994 215.8170 144.2149 15.00339276777353 ISS (ZARYA) 1 25544U 98067A 08053.35017361 .00012065 00000-0 75157-4 0 9692 2 25544 051.6413 253.4853 0007937 068.1304 297.5804 15.77405121530253 CXO 1 25867U 99040B 08053.83333333 .00000109 00000-0 10000-3 0 1711 2 25867 063.1898 083.4141 6631157 280.3311 353.5958 00.37806144 3197 ____________________________________________________________________ These 2-Line ...Continue Reading

Current TLEs

February 22nd 2008 PST

HST 1 20580U 90037B 08050.93876105 +.00000342 +00000-0 +13612-4 0 00915 2 20580 028.4685 014.4490 0004084 206.1472 153.8913 15.00338923777207 ISS (ZARYA) 1 25544U 98067A 08052.16327744 .00024067 00000-0 14578-3 0 9626 2 25544 051.6401 259.6117 0007459 067.3946 033.8867 15.77404443530068 CXO 1 25867U 99040B 08051.20833333 .00000082 00000-0 10000-3 0 1704 2 25867 063.1811 083.4954 6626362 280.3673 356.1818 00.37804343 3189 ____________________________________________________________________ These 2-Line ...Continue Reading

Current TLEs

February 21st 2008 PST

HST 1 20580U 90037B 08051.20484418 .00000338 00000-0 13336-4 0 769 2 20580 028.4684 012.7126 0004014 208.2850 151.7522 15.00338963777240 ISS (ZARYA) 1 25544U 98067A 08051.38474537 .00012885 00000-0 80170-4 0 9573 2 25544 051.6410 263.6308 0007668 061.0764 296.2639 15.77355792529934 CXO 1 25867U 99040B 08051.20833333 .00000082 00000-0 10000-3 0 1704 2 25867 063.1811 083.4954 6626362 280.3673 356.1818 00.37804343 3189 ____________________________________________________________________ These 2-Line ...Continue Reading
  • This mailing list is a public mailing list - anyone may join or leave, at any time.
  • This mailing list is announce-only.

International Space Station (ISS) / Hubble Space Telescope (HST) / Chandra X-Ray Observatory Orbital Data via EMAIL

Privacy Policy:

Private list